Location: Campbell_Patio
(29.7380°N, 95.6336°W)
Time: 15:01:00
(UTC-05:00)

Tiangong - Visible Passes

Search period start: 22 May 2024 00:00
Search period end: 01 June 2024 00:00
Orbit: 371 x 374 km, 41.5° (Epoch: 22 May)

Date Brightness Start Highest point End Pass type
(mag) Time Alt. Az. Time Alt. Az. Time Alt. Az.
22 May -0.3 05:08:47 17° WNW 05:10:10 23° NNW 05:12:44 10° NE visible
23 May 0.2 04:08:06 23° NNE 04:08:06 23° NNE 04:09:33 10° NE visible
23 May 0.6 05:42:18 10° NW 05:43:40 12° NNW 05:45:03 10° NNE visible
24 May 0.1 04:39:15 16° NNW 04:39:50 17° NNW 04:41:58 10° NNE visible
25 May 1.3 03:38:20 12° NE 03:38:20 12° NE 03:38:41 10° NE visible
25 May 0.8 05:12:33 10° NNW 05:13:12 10° N 05:13:51 10° N visible
26 May 0.7 04:09:15 13° N 04:09:15 13° N 04:10:44 10° NNE visible
28 May 1.3 03:38:55 10° N 03:38:55 10° N 03:39:03 10° N visible
28 May 1.0 05:14:50 10° N 05:15:32 11° N 05:16:14 10° NNE visible
29 May 0.7 05:46:21 10° NNW 05:48:30 17° NNE 05:50:39 10° ENE visible
30 May 1.0 04:42:41 10° NNW 04:44:04 12° NNE 04:45:26 10° NE visible
31 May 0.3 05:14:10 10° NNW 05:16:43 23° NNE 05:19:16 10° ENE visible
